Tracking 29892 objects as of 21-Nov-2024
HD Live streaming from Space Station
objects crossing your sky now

DELTA 1 DEB

Track DELTA 1 DEB now!
10-day predictions


NORAD ID: 42586
Int'l Code: 1973-086JA
Perigee: 1,508.7 km
Apogee: 1,557.8 km
Inclination: 102.4 °
Period: 116.6 minutes
Semi major axis: 7904 km
RCS: Unknown
Launch date: November 6, 1973
Source: United States (US)
Launch site: AIR FORCE WESTERN TEST RANGE (AFWTR)

Note: This is SATELLITE DEBRIS
Your satellite tracking list
Your tracking list is empty




NASA's NSSDC Master Catalog

Two Line Element Set (TLE):
1 42586U 73086JA  24323.78084734  .00000044  00000-0  71761-3 0  9997
2 42586 102.4074 330.7990 0031015 120.2878  53.2988 12.35415122495812
Source of the keplerian elements: AFSPC